{"data":{"norad_id":53578,"intl_designator":"2022-101BD","name":"STARLINK-4556","alt_names":[],"object_type":"PAYLOAD","status":"ACTIVE","operator":null,"country":"US","launch_date":"2022-08-19","launch_site_code":"AFETR","launch_vehicle":null,"mission":null,"orbit_class":"UNKNOWN","rcs_meters":null,"size_class":null,"mass_kg":null,"dimensions":null,"purposes":["comms"],"wikipedia_slug":null,"has_3d_model":false,"image_url":null,"decayed_at":null,"tle_current":{"epoch":"2026-05-25T02:04:09.772608Z","epoch_age_seconds":63674,"freshness":"FRESH","line1":"1 53578U 22101BD  26145.08622422 -.00000621  00000+0 -20889-4 0  9999","line2":"2 53578  53.2125  70.7978 0001641  86.1350 273.9830 15.08840197207982","mean_motion":15.08840197,"eccentricity":0.0001641,"inclination_deg":53.2125,"raan_deg":70.7978,"arg_perigee_deg":86.135,"mean_anomaly_deg":273.983,"bstar":-2.0889e-5,"rev_number":20798,"period_min":95.43754221707,"perigee_km":538.60756274096,"apogee_km":540.878010887,"semimajor_km":6917.879786814,"source":"CELESTRAK","updated_at":"2026-05-25T13:38:17.472943Z"}}}